E0445 Weather Reports


time (UTC)temp
C
wind
direction
speed
KPH
gust
KPH
rain 1hr
cm
rain 24hr
cm
rain mn
cm
humidity
%
barometer
mb
20260507021013 7 0 0.0 4.8 0.00 1.04 1.04 92 1011.0
20260507020509 7 300 0.0 3.2 0.00 1.04 1.04 92 1011.3
20260507020028 7 0 0.0 0.0 0.00 1.04 1.04 92 1011.3
20260507015512 7 0 0.0 0.0 0.00 1.04 1.04 92 1011.5
20260507015015 7 0 0.0 0.0 0.00 1.04 1.04 92 1011.6
20260507014531 7 0 0.0 0.0 0.00 1.04 1.04 92 1011.6
20260507014012 7 0 0.0 0.0 0.00 1.04 1.04 91 1011.5
20260507013510 7 0 0.0 1.6 0.00 1.04 1.04 91 1011.4
20260507013029 7 0 0.0 6.4 0.00 1.04 1.04 91 1011.4
20260507012012 7 319 1.6 6.4 0.00 1.04 1.04 91 1011.4
20260507011533 7 327 0.0 6.4 0.00 1.04 1.04 91 1011.3
20260507011011 7 0 0.0 6.4 0.00 1.04 1.04 91 1011.3
20260507010513 7 307 3.2 6.4 0.00 1.04 1.04 91 1011.5
20260507010040 7 290 3.2 8.0 0.00 1.04 1.04 91 1011.5
20260507005510 7 288 3.2 8.0 0.00 1.04 1.04 91 1011.3
20260507005010 7 281 3.2 8.0 0.00 1.04 1.04 91 1011.0
20260507004529 7 314 1.6 4.8 0.00 1.04 1.04 91 1010.9
20260507004013 7 282 0.0 4.8 0.00 1.04 1.04 91 1010.9
20260507003511 7 288 0.0 9.7 0.00 1.04 1.04 91 1010.8
20260507003030 7 321 3.2 9.7 0.00 1.04 1.04 91 1010.7
20260507002512 7 323 3.2 8.0 0.00 1.04 1.04 91 1010.6
20260507002013 7 303 1.6 8.0 0.00 1.04 1.04 91 1010.4
20260507001549 7 317 3.2 8.0 0.00 1.04 1.04 91 1010.3
20260507001011 7 5 1.6 14.5 0.00 1.04 1.04 91 1010.4
20260507000512 7 344 4.8 14.5 0.00 1.04 1.04 91 1010.5
20260507000035 7 312 1.6 9.7 0.00 1.04 1.04 91 1010.6
20260506235511 7 31 3.2 12.9 0.00 1.04 1.04 91 1010.4
20260506235010 7 288 4.8 12.9 0.00 1.04 1.04 92 1010.4
20260506234531 7 342 6.4 14.5 0.00 1.04 1.04 92 1010.1
20260506234013 7 355 1.6 14.5 0.00 1.04 1.04 92 1010.0
20260506233511 7 0 3.2 12.9 0.00 1.04 1.04 92 1010.0
20260506233030 7 305 6.4 12.9 0.00 1.04 1.04 92 1010.1
20260506232512 7 349 4.8 12.9 0.00 1.04 1.04 92 1009.9
20260506232010 7 348 4.8 16.1 0.00 1.04 1.04 92 1009.9
20260506231528 8 21 4.8 16.1 0.00 1.04 1.04 92 1010.0
20260506231013 8 320 3.2 16.1 0.00 1.04 1.04 92 1010.0
20260506230512 8 355 6.4 16.1 0.00 1.04 1.04 92 1010.0
20260506230032 8 330 3.2 17.7 0.00 1.04 1.04 93 1009.9
20260506225512 8 336 4.8 17.7 0.00 1.04 1.04 93 1009.8
20260506225012 8 338 8.0 16.1 0.00 1.04 1.04 93 1009.7
20260506224526 8 355 3.2 14.5 0.00 1.04 1.04 93 1009.5
20260506224014 8 301 8.0 16.1 0.03 1.04 1.04 93 1009.4
20260506223512 8 337 4.8 16.1 0.03 1.04 1.04 93 1009.1
20260506223029 8 321 4.8 9.7 0.03 1.04 1.04 93 1009.1
20260506222510 8 360 4.8 9.7 0.03 1.04 1.04 93 1009.1
20260506222013 8 324 3.2 9.7 0.05 1.04 1.04 93 1009.1
20260506221530 8 5 3.2 17.7 0.05 1.04 1.04 93 1009.0
20260506221010 8 5 8.0 17.7 0.05 1.04 1.04 93 1008.8
20260506220510 8 355 3.2 16.1 0.05 1.04 1.04 93 1008.9
20260506220033 8 333 4.8 16.1 0.05 1.04 1.04 93 1008.8
20260506215511 8 346 9.7 16.1 0.05 1.04 1.04 93 1008.9
20260506215011 8 313 6.4 14.5 0.05 1.04 1.04 93 1008.8
20260506214530 8 335 6.4 14.5 0.05 1.04 1.04 93 1008.5
20260506214010 8 320 4.8 20.9 0.03 1.02 1.02 92 1008.6
20260506213514 9 350 8.0 20.9 0.03 1.02 1.02 92 1008.5
20260506213037 9 301 8.0 17.7 0.03 1.02 1.02 92 1008.5
20260506212512 9 325 6.4 20.9 0.03 1.02 1.02 92 1008.3
20260506212010 10 331 11.3 20.9 0.00 0.99 0.99 92 1007.9
20260506211539 10 288 11.3 20.9 0.00 0.99 0.99 92 1007.9
20260506211010 10 306 14.5 24.1 0.00 0.99 0.99 92 1007.7
20260506210512 10 321 11.3 24.1 0.03 0.99 0.99 92 1007.5
20260506210035 10 342 8.0 20.9 0.03 0.99 0.99 92 1007.5
20260506205510 10 334 12.9 20.9 0.03 0.99 0.99 92 1007.2
20260506205014 10 288 12.9 17.7 0.03 0.99 0.99 92 1007.1
20260506204533 11 337 8.0 19.3 0.03 0.99 0.99 92 1006.9
20260506204010 11 325 9.7 19.3 0.03 0.99 0.99 92 1006.8
20260506203512 11 331 8.0 22.5 0.03 0.99 0.99 91 1006.8
20260506203033 11 323 11.3 22.5 0.03 0.99 0.99 91 1006.7
20260506202513 11 326 11.3 22.5 0.03 0.99 0.99 91 1006.7
20260506202015 12 355 8.0 29.0 0.03 0.99 0.99 91 1006.6
20260506201536 12 355 11.3 29.0 0.03 0.99 0.99 91 1006.5
20260506201013 13 302 11.3 29.0 0.03 0.99 0.99 92 1006.4
20260506200510 14 319 11.3 24.1 0.00 0.97 0.97 93 1006.2
20260506200031 15 293 11.3 16.1 0.00 0.97 0.97 94 1006.1
20260506195513 15 0 3.2 11.3 0.00 0.97 0.97 94 1005.8
20260506195016 15 186 4.8 14.5 0.00 0.97 0.97 94 1005.9
20260506194527 15 210 3.2 14.5 0.00 0.97 0.97 94 1005.9
20260506194011 15 194 8.0 12.9 0.00 0.97 0.97 95 1006.0
20260506193512 15 188 6.4 11.3 0.00 0.97 0.97 95 1005.9
20260506193042 15 0 4.8 9.7 0.00 0.97 0.97 95 1006.0
20260506192514 15 197 4.8 9.7 0.00 0.97 0.97 95 1005.9
20260506192010 15 200 4.8 12.9 0.00 0.97 0.97 95 1006.0
20260506191528 15 195 1.6 12.9 0.00 0.97 0.97 95 1006.1
20260506191012 15 213 6.4 12.9 0.00 0.97 0.97 95 1006.1
20260506190513 14 228 6.4 14.5 0.00 0.97 0.97 95 1006.0
20260506190028 14 191 4.8 14.5 0.00 0.97 0.97 95 1006.1
20260506185511 14 217 6.4 19.3 0.00 0.97 0.97 96 1006.1
20260506185011 14 202 8.0 19.3 0.00 0.97 0.97 96 1006.0
20260506184531 14 208 6.4 12.9 0.00 0.97 0.97 96 1006.2
20260506184010 14 200 6.4 16.1 0.00 0.97 0.97 96 1006.2
20260506183513 14 195 6.4 16.1 0.00 0.97 0.97 96 1006.1
20260506183025 14 193 8.0 16.1 0.00 0.97 0.97 96 1006.3
20260506182511 14 175 8.0 19.3 0.00 0.97 0.97 96 1006.2
20260506182014 14 172 6.4 19.3 0.00 0.97 0.97 96 1006.4
20260506181537 14 190 3.2 25.7 0.00 0.97 0.97 96 1006.4
20260506181013 14 213 8.0 25.7 0.00 0.97 0.97 96 1006.4
20260506180516 14 178 9.7 20.9 0.00 0.97 0.97 96 1006.5
20260506180030 14 163 4.8 14.5 0.00 0.97 0.97 96 1006.4
20260506175514 14 196 6.4 14.5 0.03 0.97 0.97 96 1006.5
20260506175011 14 223 3.2 11.3 0.03 0.97 0.97 96 1006.4
20260506174534 14 163 4.8 12.9 0.03 0.97 0.97 96 1006.4
20260506174014 14 186 4.8 12.9 0.03 0.97 0.97 96 1006.4
20260506173514 14 184 4.8 11.3 0.03 0.97 0.97 96 1006.4
20260506173047 14 202 6.4 11.3 0.03 0.97 0.97 96 1006.4
20260506172511 14 196 3.2 9.7 0.03 0.97 0.97 96 1006.5
20260506172011 14 193 3.2 14.5 0.03 0.97 0.97 96 1006.5
20260506171538 14 183 4.8 14.5 0.03 0.97 0.97 96 1006.6
20260506171012 14 188 4.8 12.9 0.03 0.97 0.97 96 1006.5
20260506170514 14 229 6.4 14.5 0.05 0.97 0.97 96 1006.7
20260506170044 14 200 4.8 14.5 0.05 0.97 0.97 96 1006.7
20260506165515 14 196 6.4 17.7 0.05 0.94 0.94 96 1006.7
20260506165012 13 199 6.4 17.7 0.08 0.94 0.94 96 1006.8
20260506164528 13 208 8.0 16.1 0.10 0.94 0.94 96 1006.8
20260506164015 13 237 8.0 19.3 0.10 0.94 0.94 96 1006.8
20260506163512 13 231 8.0 19.3 0.13 0.94 0.94 96 1006.8
20260506163032 13 184 6.4 12.9 0.15 0.94 0.94 96 1006.9
20260506162512 13 179 6.4 12.9 0.18 0.94 0.94 96 1006.9
20260506162015 13 190 4.8 12.9 0.20 0.94 0.94 96 1006.8
20260506161530 13 187 4.8 11.3 0.20 0.94 0.94 96 1006.8
20260506161016 13 187 3.2 9.7 0.23 0.94 0.94 96 1006.8
20260506160510 13 196 4.8 16.1 0.20 0.91 0.91 96 1006.9
20260506160027 13 219 4.8 16.1 0.23 0.91 0.91 96 1006.9
20260506155511 13 207 4.8 14.5 0.20 0.89 0.89 96 1006.8
20260506155010 13 172 6.4 12.9 0.18 0.86 0.86 96 1007.0
20260506154528 13 199 4.8 11.3 0.15 0.84 0.84 96 1007.0
20260506154012 13 188 6.4 12.9 0.13 0.81 0.81 96 1006.9
20260506153511 13 185 6.4 14.5 0.13 0.81 0.81 96 1006.9
20260506153027 13 173 4.8 16.1 0.13 0.79 0.79 96 1007.0
20260506152511 13 155 4.8 16.1 0.10 0.76 0.76 96 1007.0
20260506152013 13 194 6.4 16.1 0.08 0.74 0.74 96 1007.0
20260506151528 13 213 8.0 16.1 0.10 0.74 0.74 96 1007.0
20260506151013 13 198 6.4 16.1 0.10 0.71 0.71 96 1006.9
20260506150511 13 194 8.0 12.9 0.10 0.71 0.71 96 1006.9
20260506150029 13 204 6.4 14.5 0.10 0.69 0.69 97 1006.8
20260506145514 13 173 6.4 17.7 0.13 0.69 0.69 97 1006.8
20260506145013 13 193 8.0 19.3 0.15 0.69 0.69 97 1006.7
20260506144527 13 197 8.0 19.3 0.18 0.69 0.69 97 1006.8
20260506144012 13 189 6.4 16.1 0.20 0.69 0.69 97 1006.8
20260506143510 13 214 8.0 16.1 0.23 0.69 0.69 97 1006.7
20260506143029 13 184 6.4 11.3 0.23 0.66 0.66 97 1006.8
20260506142511 13 199 1.6 6.4 0.25 0.66 0.66 97 1006.8
20260506142013 12 0 0.0 4.8 0.28 0.66 0.66 97 1006.7
20260506141531 12 131 1.6 4.8 0.28 0.64 0.64 96 1006.6
20260506141011 12 0 0.0 1.6 0.30 0.61 0.61 97 1006.7
20260506140511 12 0 0.0 0.0 0.33 0.61 0.61 96 1006.8
20260506140033 12 0 0.0 3.2 0.33 0.58 0.58 96 1007.1
20260506135513 12 0 0.0 3.2 0.33 0.56 0.56 96 1007.3
20260506135012 12 0 0.0 1.6 0.33 0.53 0.53 96 1007.3
20260506134528 12 0 0.0 1.6 0.33 0.51 0.51 96 1007.4
20260506134014 12 0 0.0 1.6 0.30 0.48 0.48 96 1007.5
20260506133515 12 0 0.0 0.0 0.30 0.46 0.46 96 1007.6
20260506133035 12 0 0.0 0.0 0.28 0.43 0.43 96 1007.8
20260506132509 12 0 0.0 0.0 0.25 0.41 0.41 96 1007.9
20260506132014 12 0 0.0 0.0 0.20 0.36 0.36 96 1008.0
20260506131528 12 0 0.0 0.0 0.20 0.33 0.33 96 1007.9
20260506131013 12 0 0.0 1.6 0.18 0.30 0.30 96 1008.0
20260506130513 12 0 0.0 1.6 0.15 0.28 0.28 96 1008.1
20260506130030 12 0 0.0 1.6 0.15 0.25 0.25 96 1008.0
20260506125511 12 0 0.0 0.0 0.13 0.23 0.23 96 1008.1
20260506125009 12 0 0.0 0.0 0.10 0.20 0.20 96 1007.9
20260506124529 12 0 0.0 0.0 0.08 0.18 0.18 96 1007.9
20260506124012 12 0 0.0 0.0 0.08 0.18 0.18 96 1007.7
20260506123512 12 0 0.0 0.0 0.08 0.15 0.15 95 1007.5
20260506123030 12 0 0.0 0.0 0.08 0.15 0.15 95 1007.4
20260506122513 12 0 0.0 0.0 0.08 0.15 0.15 95 1007.3
20260506122014 12 0 0.0 0.0 0.10 0.15 0.15 95 1007.4
20260506121527 12 0 0.0 0.0 0.08 0.13 0.13 95 1007.5
20260506121011 12 0 0.0 0.0 0.10 0.13 0.13 95 1007.5
20260506120511 12 0 0.0 0.0 0.13 0.13 0.13 94 1007.5
20260506120026 12 0 0.0 0.0 0.10 0.10 0.10 94 1007.6
20260506115511 12 0 0.0 0.0 0.10 0.10 0.10 94 1007.7
20260506115011 12 0 0.0 0.0 0.10 0.10 0.10 94 1007.5
20260506114529 12 0 0.0 0.0 0.10 0.10 0.10 93 1007.6
20260506114009 12 0 0.0 0.0 0.10 0.10 0.10 93 1007.5
20260506113510 12 0 0.0 0.0 0.08 0.08 0.08 92 1007.6
20260506113028 12 0 0.0 3.2 0.08 0.08 0.08 92 1007.6
20260506112513 12 0 0.0 3.2 0.05 0.05 0.05 91 1007.6
20260506112012 12 13 1.6 3.2 0.05 0.05 0.05 90 1007.4
20260506111528 13 0 0.0 4.8 0.05 0.05 0.05 88 1007.5
20260506111011 13 0 0.0 4.8 0.03 0.03 0.03 87 1007.5
20260506110514 13 13 1.6 4.8 0.00 0.00 0.00 87 1007.6
20260506110030 13 0 0.0 3.2 0.00 0.00 0.00 87 1007.6
20260506105512 13 0 0.0 4.8 0.00 0.00 0.00 86 1007.7
20260506105012 13 13 1.6 4.8 0.00 0.00 0.00 85 1007.5
20260506104554 13 13 3.2 4.8 0.00 0.00 0.00 87 1007.4
20260506104011 12 17 1.6 6.4 0.00 0.00 0.00 88 1007.4
20260506103511 12 38 3.2 6.4 0.00 0.00 0.00 89 1007.1
20260506103029 12 59 3.2 4.8 0.00 0.00 0.00 89 1007.1
20260506102511 12 59 1.6 4.8 0.00 0.00 0.00 89 1007.0
20260506102009 12 59 1.6 4.8 0.00 0.00 0.00 88 1007.1
20260506101532 12 0 1.6 6.4 0.00 0.00 0.00 88 1007.1
20260506101013 12 59 3.2 6.4 0.00 0.00 0.00 88 1006.9
20260506100511 12 0 0.0 0.0 0.00 0.00 0.00 87 1007.0
20260506100039 13 0 0.0 0.0 0.00 0.00 0.00 86 1006.9
20260506095511 13 0 0.0 0.0 0.00 0.00 0.00 84 1007.0
20260506095010 13 0 0.0 0.0 0.00 0.00 0.00 82 1007.0
20260506094533 13 0 0.0 0.0 0.00 0.00 0.00 82 1007.1
20260506094016 13 0 0.0 0.0 0.00 0.00 0.00 81 1007.0
20260506093513 13 0 0.0 0.0 0.00 0.00 0.00 81 1006.9
20260506093028 13 0 0.0 3.2 0.00 0.00 0.00 82 1006.9
20260506092512 13 0 0.0 3.2 0.00 0.00 0.00 82 1006.9
20260506092013 13 0 0.0 3.2 0.00 0.00 0.00 83 1006.9
20260506091529 13 65 0.0 3.2 0.00 0.00 0.00 82 1006.9
20260506091011 13 0 0.0 0.0 0.00 0.00 0.00 82 1007.1
20260506090513 13 0 0.0 0.0 0.00 0.00 0.00 84 1007.0
20260506090040 13 0 0.0 0.0 0.00 0.00 0.00 83 1007.1
20260506085513 13 0 0.0 0.0 0.00 0.00 0.00 83 1007.0
20260506085012 13 0 0.0 0.0 0.00 0.00 0.00 84 1007.2
20260506084528 13 0 0.0 3.2 0.00 0.00 0.00 84 1007.3
20260506084017 13 0 0.0 3.2 0.00 0.00 0.00 89 1007.2
20260506083513 12 0 0.0 3.2 0.00 0.00 0.00 92 1007.4
20260506083037 12 0 0.0 0.0 0.00 0.00 0.00 94 1007.4
20260506082511 12 0 0.0 0.0 0.00 0.00 0.00 95 1007.2
20260506082013 12 0 0.0 0.0 0.00 0.00 0.00 95 1007.1
20260506081526 12 0 0.0 0.0 0.00 0.00 0.00 96 1007.2
20260506081010 12 0 0.0 0.0 0.00 0.00 0.00 96 1007.1
20260506080513 12 0 0.0 0.0 0.00 0.00 0.00 96 1007.1
20260506073517 12 42 0.0 1.6 0.00 0.00 0.00 96 1007.1
20260506073030 12 0 0.0 1.6 0.00 0.00 0.00 96 1007.3
20260506072517 12 0 0.0 0.0 0.00 0.00 0.00 96 1007.3
20260506072011 12 0 0.0 0.0 0.00 0.00 0.00 96 1007.4
20260506071529 12 0 0.0 0.0 0.00 0.00 0.00 96 1007.4
20260506071011 12 0 0.0 0.0 0.00 0.00 0.00 96 1007.5
20260506070512 12 0 0.0 0.0 0.00 0.00 0.00 96 1007.5
20260506062515 12 0 0.0 0.0 0.00 0.00 0.00 95 1007.8
20260506062011 12 0 0.0 0.0 0.00 0.00 0.00 95 1007.8
20260506061530 12 0 0.0 0.0 0.00 0.00 0.00 95 1007.9
20260506061016 12 0 0.0 0.0 0.00 0.00 0.00 94 1008.0
20260506060514 12 0 0.0 0.0 0.00 0.00 0.00 94 1008.1
20260506051012 12 0 0.0 6.4 0.00 0.00 0.00 90 1008.7
20260506050510 13 32 3.2 6.4 0.00 0.00 0.00 90 1008.5
20260506045012 14 55 3.2 6.4 0.00 0.00 0.00 89 1008.5
20260506044532 14 55 1.6 6.4 0.00 0.00 0.00 89 1008.6
20260506044008 14 57 3.2 8.0 0.00 0.00 0.00 88 1008.7
20260506043513 14 26 3.2 8.0 0.00 0.00 0.00 88 1008.6
20260506043028 14 34 4.8 9.7 0.00 0.00 0.00 88 1008.5
20260506042515 14 30 6.4 9.7 0.00 0.00 0.00 87 1008.6
20260506042011 14 38 4.8 11.3 0.00 0.00 0.00 87 1008.7
20260506041528 13 42 4.8 11.3 0.00 0.00 0.00 87 1008.8
20260506041011 13 327 1.6 6.4 0.00 0.00 0.00 88 1008.8
20260506040511 13 327 3.2 8.0 0.00 0.00 0.00 87 1008.8
20260506040042 13 0 1.6 8.0 0.00 0.00 0.00 87 1008.8
20260506035511 12 321 4.8 8.0 0.00 0.00 0.00 86 1008.8
20260506035012 12 321 4.8 8.0 0.00 0.00 0.00 85 1008.8
20260506034530 12 321 4.8 8.0 0.00 0.00 0.00 85 1008.7
20260506034013 12 321 0.0 6.4 0.00 0.00 0.00 85 1008.7
20260506033512 13 0 0.0 0.0 0.00 0.00 0.00 84 1008.6
20260506033029 13 0 0.0 0.0 0.00 0.00 0.00 85 1008.6
20260506032514 13 0 0.0 1.6 0.00 0.00 0.00 85 1008.6
20260506032011 13 0 0.0 3.2 0.00 0.00 0.00 86 1008.7
20260506031528 13 0 0.0 3.2 0.00 0.00 0.00 86 1008.6
20260506031013 13 321 0.0 3.2 0.00 0.00 0.00 85 1008.5
20260506030515 13 0 0.0 4.8 0.00 0.00 0.00 85 1008.6
20260506030030 13 0 1.6 4.8 0.00 0.00 0.00 84 1008.6
20260506025512 13 321 1.6 4.8 0.00 0.00 0.00 84 1008.5
20260506025013 13 321 1.6 4.8 0.00 0.00 0.00 83 1008.6
20260506024536 14 0 0.0 0.0 0.00 0.00 0.00 83 1008.5
20260506024012 14 0 0.0 0.0 0.00 0.00 0.00 83 1008.5
20260506023511 14 0 0.0 0.0 0.00 0.00 0.00 82 1008.5
20260506023030 15 0 0.0 0.0 0.00 0.00 0.00 82 1008.5
20260506022512 15 0 0.0 0.0 0.00 0.00 0.00 82 1008.5
20260506022011 15 0 0.0 0.0 0.00 0.00 0.00 82 1008.5
20260506021542 15 0 0.0 0.0 0.00 0.00 0.00 81 1008.5